Tracking 22454 objects as of 5-Mar-2021
HD Live streaming from Space Station
objects crossing your sky now

FREGAT DEB

Track FREGAT DEB now!
10-day predictions


NORAD ID: 46247
Int'l Code: 2011-037KH
Perigee: 576.9 km
Apogee: 2,085.4 km
Inclination: 50.7 °
Period: 112.1 minutes
Semi major axis: 7702 km
RCS: Unknown
Launch date: July 18, 2011
Source: Commonwealth of Independent States (former USSR) (CIS)
Launch site: TYURATAM MISSILE AND SPACE COMPLEX (TTMTR)

Note: This is SATELLITE DEBRIS
aabbcc
Your satellite tracking list
Your tracking list is empty




NASA's NSSDC Master Catalog

Two Line Element Set (TLE):
1 46247U 11037KH  21062.97397765  .00122982  00000-0  56290-1 0  9996
2 46247  50.7274 274.2491 0979315 359.0115   0.8812 12.84351942 25552
Source of the keplerian elements: AFSPC